Date String (YYYY-MM-DD hh:mm:ss) UTC,Instrument flags,Ambient pressure (hPa),Sample flow (lpm),Bypass flow (lpm),Sample temperature (°C),Ambient temperature (°C),ASC tube jacket temperature (°C),LED temperature (°C),Box temperature (°C),Sample RH (%),Span deviation,Mass concentration (μg/m³),Mass concentration (μg/m³),Mass concentration (μg/m³)
DateTimeUTC,F1_M11,P_M11,Q1_M11,Q2_M11,T1_M11,T2_M11,T3_M11,T4_M11,T5_M11,U1_M11,ZSPAN_M11,X0_M11,X2_M11,X1_M11
2022-07-23 05:00:00,,0825.7,5.00,0.00,29.4,28.4,00.0,38.1,31.5,20.7,0000.0,0007.78,0004.08,0003.47
2022-07-23 05:01:00,,0825.7,5.00,0.00,29.5,28.5,00.0,38.1,31.5,20.7,0000.0,0007.72,0004.06,0003.47
2022-07-23 05:02:00,,0825.7,5.00,0.00,29.5,27.9,00.0,38.1,31.5,20.9,0000.0,0007.67,0004.05,0003.49
2022-07-23 05:03:00,,0825.7,5.00,0.00,29.5,27.1,00.0,38.0,31.3,21.1,0000.0,0007.75,0004.12,0003.53
2022-07-23 05:04:00,,0825.8,5.00,0.00,29.4,26.9,00.0,38.0,31.2,21.2,0000.0,0007.82,0004.18,0003.58
2022-07-23 05:05:00,,0825.7,5.01,0.00,29.4,26.9,00.0,38.0,31.1,21.4,0000.0,0008.54,0004.28,0003.64
2022-07-23 05:06:00,,0826.0,4.99,0.00,29.3,27.1,00.0,38.0,31.1,21.5,0000.0,0009.34,0004.42,0003.72
2022-07-23 05:07:00,,0825.9,5.01,0.00,29.3,27.3,00.0,38.0,31.1,21.6,0000.0,0009.86,0004.61,0003.82
2022-07-23 05:08:00,,0825.8,4.99,0.00,29.3,27.4,00.0,38.0,31.2,21.7,0000.0,0010.26,0004.79,0003.92
2022-07-23 05:09:00,,0825.7,4.99,0.00,29.3,27.6,00.0,38.0,31.2,21.6,0000.0,0010.45,0004.97,0004.03
2022-07-23 05:10:00,,0825.8,5.01,0.00,29.3,27.8,00.0,38.1,31.3,21.8,0000.0,0010.67,0005.12,0004.13
2022-07-23 05:11:00,,0825.7,5.00,0.00,29.3,28.0,00.0,38.1,31.3,21.8,0000.0,0011.79,0005.29,0004.25
2022-07-23 05:12:00,,0825.7,5.01,0.00,29.4,28.1,00.0,38.1,31.3,21.7,0000.0,0014.09,0005.43,0004.36
2022-07-23 05:13:00,,0825.7,5.00,0.00,29.4,28.2,00.0,38.1,31.4,21.8,0000.0,0014.75,0005.54,0004.44
2022-07-23 05:14:00,,0825.7,4.99,0.00,29.4,28.4,00.0,38.1,31.4,21.7,0000.0,0015.72,0005.64,0004.51
2022-07-23 05:15:00,,0825.8,5.00,0.00,29.5,28.5,00.0,38.2,31.5,21.6,0000.0,0015.98,0005.67,0004.57
2022-07-23 05:16:00,,0825.7,5.01,0.00,29.5,28.5,00.0,38.2,31.5,21.6,0000.0,0015.38,0005.69,0004.64
2022-07-23 05:17:00,,0825.7,5.00,0.00,29.5,27.9,00.0,38.1,31.5,21.6,0000.0,0014.93,0005.67,0004.67
2022-07-23 05:18:00,,0825.7,5.00,0.00,29.5,27.1,00.0,38.1,31.3,21.5,0000.0,0014.98,0005.59,0004.68
2022-07-23 05:19:00,,0825.6,4.98,0.00,29.4,26.8,00.0,38.0,31.2,21.3,0000.0,0014.94,0005.56,0004.68
2022-07-23 05:20:00,,0825.6,5.01,0.00,29.4,26.9,00.0,38.1,31.1,21.3,0000.0,0015.10,0005.55,0004.66
2022-07-23 05:21:00,,0825.6,4.99,0.00,29.3,27.0,00.0,38.1,31.1,21.2,0000.0,0015.17,0005.54,0004.65
2022-07-23 05:22:00,,0825.6,5.01,0.00,29.3,27.2,00.0,38.1,31.1,21.3,0000.0,0014.61,0005.55,0004.64
2022-07-23 05:23:00,,0825.5,5.00,0.00,29.3,27.4,00.0,38.1,31.2,21.5,0000.0,0013.46,0005.54,0004.63
2022-07-23 05:24:00,,0825.6,5.00,0.00,29.3,27.6,00.0,38.1,31.2,21.4,0000.0,0013.86,0005.59,0004.62
2022-07-23 05:25:00,,0825.6,5.00,0.00,29.3,27.8,00.0,38.1,31.3,21.4,0000.0,0014.11,0005.60,0004.61
2022-07-23 05:26:00,,0825.6,5.00,0.00,29.3,27.9,00.0,38.1,31.3,21.4,0000.0,0014.15,0005.65,0004.61
2022-07-23 05:27:00,,0825.6,4.99,0.00,29.4,28.1,00.0,38.1,31.3,21.4,0000.0,0014.20,0005.68,0004.60
2022-07-23 05:28:00,,0825.6,5.01,0.00,29.4,28.2,00.0,38.1,31.4,21.4,0000.0,0014.28,0005.72,0004.59
2022-07-23 05:29:00,,0825.6,4.99,0.00,29.4,28.3,00.0,38.1,31.4,21.1,0000.0,0014.46,0005.76,0004.58
2022-07-23 05:30:00,,0825.6,5.01,0.00,29.5,28.4,00.0,38.2,31.5,20.9,0000.0,0014.56,0005.79,0004.59
2022-07-23 05:31:00,,0825.6,5.00,0.00,29.5,28.5,00.0,38.2,31.5,20.7,0000.0,0014.33,0005.81,0004.59
2022-07-23 05:32:00,,0825.5,4.99,0.00,29.6,28.5,00.0,38.2,31.6,20.7,0000.0,0014.17,0005.76,0004.59
2022-07-23 05:33:00,,0825.5,5.00,0.00,29.6,27.9,00.0,38.2,31.5,20.5,0000.0,0013.97,0005.76,0004.58
2022-07-23 05:34:00,,0825.5,5.00,0.00,29.5,27.1,00.0,38.1,31.4,20.6,0000.0,0013.65,0005.65,0004.54
2022-07-23 05:35:00,,0825.5,5.00,0.00,29.5,26.9,00.0,38.1,31.3,20.6,0000.0,0012.31,0005.58,0004.50
2022-07-23 05:36:00,,0825.4,5.01,0.00,29.4,26.9,00.0,38.1,31.2,20.7,0000.0,0011.29,0005.53,0004.46
2022-07-23 05:37:00,,0825.5,4.99,0.00,29.3,27.1,00.0,38.1,31.1,20.9,0000.0,0010.60,0005.41,0004.42
2022-07-23 05:38:00,,0825.5,5.00,0.00,29.3,27.2,00.0,38.1,31.1,21.0,0000.0,0010.60,0005.31,0004.37
2022-07-23 05:39:00,,0825.5,5.01,0.00,29.3,27.4,00.0,38.1,31.2,21.0,0000.0,0010.57,0005.22,0004.32
2022-07-23 05:40:00,,0825.5,4.99,0.00,29.3,27.6,00.0,38.1,31.2,21.3,0000.0,0010.24,0005.14,0004.28
2022-07-23 05:41:00,,0825.5,4.99,0.00,29.3,27.8,00.0,38.1,31.2,21.6,0000.0,0010.42,0005.12,0004.27
2022-07-23 05:42:00,,0825.5,5.01,0.00,29.4,27.9,00.0,38.1,31.3,21.6,0000.0,0010.59,0005.13,0004.27
2022-07-23 05:43:00,,0825.6,4.99,0.00,29.4,28.1,00.0,38.1,31.3,21.4,0000.0,0011.52,0005.17,0004.27
2022-07-23 05:44:00,,0825.6,5.01,0.00,29.4,28.2,00.0,38.1,31.4,21.1,0000.0,0011.60,0005.15,0004.25
2022-07-23 05:45:00,,0825.5,4.99,0.00,29.4,28.3,00.0,38.2,31.4,21.1,0000.0,0011.61,0005.16,0004.24
2022-07-23 05:46:00,,0825.5,5.00,0.00,29.5,28.4,00.0,38.2,31.5,21.1,0000.0,0011.73,0005.20,0004.24
2022-07-23 05:47:00,,0825.5,5.01,0.00,29.5,28.5,00.0,38.2,31.5,20.9,0000.0,0012.47,0005.22,0004.25
2022-07-23 05:48:00,,0825.6,5.00,0.00,29.6,28.6,00.0,38.2,31.6,20.8,0000.0,0012.50,0005.26,0004.25
2022-07-23 05:49:00,,0825.5,5.00,0.00,29.6,28.3,00.0,38.2,31.6,20.7,0000.0,0012.23,0005.31,0004.26
2022-07-23 05:50:00,,0825.5,5.01,0.00,29.6,27.4,00.0,38.1,31.4,20.5,0000.0,0012.20,0005.33,0004.27
2022-07-23 05:51:00,,0825.5,5.00,0.00,29.5,26.8,00.0,38.1,31.3,20.5,0000.0,0012.20,0005.29,0004.25
2022-07-23 05:52:00,,0825.4,4.99,0.00,29.4,26.8,00.0,38.1,31.2,20.6,0000.0,0011.58,0005.21,0004.20
2022-07-23 05:53:00,,0825.4,5.01,0.00,29.4,26.9,00.0,38.1,31.1,20.7,0000.0,0011.35,0005.13,0004.15
2022-07-23 05:54:00,,0825.4,4.99,0.00,29.3,27.1,00.0,38.1,31.1,20.7,0000.0,0010.98,0005.06,0004.11
2022-07-23 05:55:00,,0825.5,5.01,0.00,29.3,27.3,00.0,38.1,31.1,20.7,0000.0,0011.05,0005.02,0004.09
2022-07-23 05:56:00,,0825.4,4.99,0.00,29.3,27.4,00.0,38.1,31.2,20.6,0000.0,0011.17,0005.00,0004.08
2022-07-23 05:57:00,,0825.4,5.00,0.00,29.3,27.6,00.0,38.1,31.2,20.6,0000.0,0010.89,0004.94,0004.06
2022-07-23 05:58:00,,0825.5,5.01,0.00,29.3,27.8,00.0,38.1,31.3,20.7,0000.0,0010.12,0004.86,0004.03
2022-07-23 05:59:00,,0825.4,4.99,0.00,29.4,27.9,00.0,38.1,31.3,20.4,0000.0,0010.13,0004.85,0004.01
